Regional Weather Roundup
Issued by NWS Goodland, KS

Home | Current Version | Previous Version | Graphics & Text | Print | Product List | Glossary On
Versions: 1 2 3 4 5 6 7 8 9 10 11 12 13 14 15 16 17 18 19 20 21 22 23 24 25 26 27 28 29 30 31 32 33 34 35 36 37 38 39 40 41 42 43 44 45 46 47 48 49 50
000
ASUS43 KGLD 031359
RWRGLD

GOODLAND FORECAST AREA HOURLY WEATHER ROUNDUP
NATIONAL WEATHER SERVICE GOODLAND KS
800 AM MDT MON AUG 03 2015

...OFFICIAL OBSERVATIONS...

CITY           SKY/WX    TMP DP  RH WIND       PRES   REMARKS
GOODLAND KS    MOSUNNY   72  61  68 E3        30.03S
HILL CITY KS   SUNNY     74  61  63 E6        29.97S
IMPERIAL NEB   PTSUNNY   70  56  61 SE12      30.02R
MCCOOK NEB     MOSUNNY   69  61  75 E8        30.00R
AKRON CO       PTSUNNY   75  60  59 SW9       30.06S
BURLINGTON CO  MOSUNNY   75  64  68 CALM      30.06R
LIMON CO       CLOUDY    70  56  61 CALM      30.12S
$$

...UNOFFICIAL OBSERVATIONS...

CITY           SKY/WX    TMP DP  RH WIND       PRES   REMARKS
COLBY KS       SUNNY     72  63  73 E5        30.02S
NORTON KS      SUNNY     70  61  73 E6        29.98S
SHARON SPRINGS   N/A     73  68  85 CALM        N/A
KIT CARSON CO    N/A     72  63  72 MISG        N/A
YUMA CO          N/A     68  59  74 CALM        N/A
$$


USA.gov is the U.S. government's official web portal to all federal, state and local government web resources and services.